Location: Quebec
(46.8000°N, 71.2500°W)
Time: 12:54:35
(UTC-04:00)

ISS - Pass Details

Date: 13 October 2017
Orbit: 401 x 408 km, 51.6° (Epoch: 19 October)

Event Time Altitude Azimuth Distance (km) Brightness Sun altitude
Rises 20:18:28 0° 283° (WNW) 2,326 1.5 -24.2°
Reaches altitude 10° 20:21:32 10° 252° (WSW) 1,462 -0.3 -24.7°
Maximum altitude 20:22:55 12° 227° (SW) 1,335 -0.9 -24.9°
Enters shadow 20:23:12 12° 221° (SW) 1,341 -0.9 -24.9°
